Regional Weather Roundup
Issued by NWS Sioux Falls, SD

Home | Current Version | Previous Version | Graphics & Text | Print | Product List | Glossary On
Versions: 1 2 3 4 5 6 7 8 9 10 11 12 13 14 15 16 17 18 19 20 21 22 23 24 25 26 27 28 29 30 31 32 33 34 35 36 37 38 39 40 41 42 43 44 45 46 47 48 49 50
000
ASUS43 KFSD 270110
RWRFSD

WEATHER ROUNDUP FOR SE SOUTH DAKOTA/SW MINNESOTA/NW IOWA
NATIONAL WEATHER SERVICE SIOUX FALLS SD
700 PM CST FRI DEC 26 2014

NOTE: "FAIR" INDICATES FEW OR NO CLOUDS BELOW 12,000 FEET WITH NO
SIGNIFICANT WEATHER AND OR OBSTRUCTIONS TO VISIBILITY.


SDZ038>040-050-052>070-270200-
SOUTHEAST SOUTH DAKOTA

CITY           SKY/WX    TMP DP  RH WIND       PRES   REMARKS
CHAMBERLAIN    CLOUDY    20  15  82 N10       30.16R WCI   8
HURON          CLOUDY    21  17  84 N17       30.16S WCI   7
MADISON        LGT SNOW  21  21 100 N15       30.09S WCI   8
MITCHELL       LGT SNOW  23  21  92 N16       30.16R FOG     WCI  10
SIOUX FALLS    LGT SNOW  23  20  88 N13       30.09S FOG     WCI  11
WINNER         FLURRIES  21  16  81 N13       30.14R WCI   9
YANKTON        CLOUDY    25  19  80 N17       30.11R WCI  11
$$

MNZ071-072-080-081-089-090-097-098-270200-
SOUTHWEST MINNESOTA

CITY           SKY/WX    TMP DP  RH WIND       PRES   REMARKS
FAIRMONT       CLOUDY    30  25  80 N17       30.03S WCI  18
JACKSON        FLURRIES  28  27  93 VRB12     30.03F WCI  18
LUVERNE        LGT SNOW  27  23  86 N10G16    30.07F WCI  17
MARSHALL       CLOUDY    25  19  80 N14       30.11S WCI  13
MONTEVIDEO     CLOUDY    25  21  86 NE12      30.14S WCI  14
PIPESTONE      LGT SNOW  23  21  93 N8        30.07S WCI  14
REDWOOD FALLS  LGT SNOW  27  25  92 N6        30.11S VSB 1   WCI  20
TRACY          LGT SNOW  26  25  96 N9        30.10S WCI  17
WINDOM         LGT SNOW  27  25  93 N15       30.05F WCI  15
WORTHINGTON    CLOUDY    25 -20  13 N15       30.05S WCI  12
$$

IAZ001>003-012>014-020>022-031-032-NEZ013-014-SDZ071-270200-
NORTHWEST IOWA

CITY           SKY/WX    TMP DP  RH WIND       PRES   REMARKS
CHEROKEE       CLOUDY    30  28  94 N12       30.03S WCI  20
DENISON        CLOUDY    32  32 100 NE12      29.99R WCI  23
ESTHERVILLE    CLOUDY    28  26  92 N17       30.02S WCI  16
LE MARS        CLOUDY    28  27  93 N16       30.07R WCI  17
ORANGE CITY    CLOUDY    28  25  86 N13       30.04S WCI  18
SHELDON        CLOUDY    27  27 100 N16       30.03S WCI  14
SIOUX CITY     CLOUDY    31  26  82 N12       30.06R WCI  22
SPENCER        CLOUDY    30  25  81 N20       30.04R WCI  17
STORM LAKE     CLOUDY    30  28  93 NE14      30.01S WCI  20
$$

ABBREVIATIONS USED IN REMARKS
   TC - TEMPERATURE IN CELSIUS
  WCI - WIND CHILL INDEX
   HX - HEAT INDEX
  VSB - VISIBILITY




USA.gov is the U.S. government's official web portal to all federal, state and local government web resources and services.